Regional Weather Roundup
Issued by NWS

Home | Current Version | Previous Version | Graphics & Text | Print | Product List | Glossary On
Versions: 1 2 3 4 5 6 7 8 9 10 11 12 13 14 15 16 17 18 19 20 21 22 23 24 25 26 27
000
ASUS45 KSLC 230810
RWRUT

UTAH REGIONAL WEATHER ROUNDUP
NATIONAL WEATHER SERVICE SALT LAKE CITY UT
200 AM MDT SUN APR 23 2017

UTZ001>011-023>025-230900-

NORTHERN UTAH

CITY           SKY/WX    TMP DP  RH WIND       PRES   REMARKS
BRIGHAM CITY   MOCLDY    44  39  83 CALM      29.94F
HILL AFB       NOT AVBL
LOGAN          PTCLDY    41  37  86 W3        29.96F
OGDEN          PTCLDY    48  33  56 SE7       29.93F
SALT LAKE CITY MOCLDY    49  36  61 E7        29.94F
TOOELE VALLEY  CLOUDY    46  36  66 S8        29.94F
WENDOVER       MOCLDY    49  36  61 NW6       29.94F
WEST JORDAN    MOCLDY    51  39  63 S6        29.96F

$$

UTZ011>015-024>027-230900-

CENTRAL/NORTHEAST UTAH

CITY           SKY/WX    TMP DP  RH WIND       PRES   REMARKS
PROVO AIRPORT  PTCLDY    45  36  70 CALM      29.98F
MOAB/CANYONLAN MOCLDY    45  18  34 CALM      30.05F
DELTA          MOCLDY    43  37  81 CALM      29.97F
PRICE          MOCLDY    43  19  38 E5        30.09F
ROOSEVELT      CLOUDY    37  28  70 W6        30.10F WCI  33
VERNAL         CLOUDY    41  25  53 W5        30.08F

$$

UTZ013>016-019>022-027-230900-

SOUTHERN UTAH

CITY           SKY/WX    TMP DP  RH WIND       PRES   REMARKS
BRYCE CANYON   MOCLDY    32  24  72 W3        30.16F
CEDAR CITY     MOCLDY    48  30  49 SE6       30.00F
MILFORD        CLOUDY    43  32  65 W7        29.97F
ST GEORGE      SUNNY     63  26  24 SE5       29.92F
HANKSVILLE     MOCLDY    41  12  30 CALM      30.07F
BLANDING       MOCLDY    44  19  36 N9        30.18F

$$

REGIONAL REPORTS     COLORADO/ARIZONA

CITY           SKY/WX    TMP DP  RH WIND       PRES   REMARKS
CRAIG, CO      CLOUDY    32  26  78 CALM      30.13F
GRAND JUNCTION CLOUDY    50  21  32 E13       30.08F
RIFLE, CO      CLOUDY    36  27  69 SE5       30.13F WCI  32
MONTROSE, CO   CLOUDY    42  21  43 S8        30.14F
CORTEZ, CO     CLOUDY    31  21  66 CALM      30.15F
COLORADO CITY    N/A     46  28  49 S5        30.04F
PAGE, AZ       PTCLDY    55  22  27 CALM      30.03F
GRAND CANYON   CLEAR     37  22  54 NE3       30.12F
KINGMAN, AZ    CLEAR     50  26  39 CALM      29.94F
FLAGSTAFF, AZ  CLEAR     34  21  59 CALM      30.16F

$$

REGIONAL REPORTS    NEVADA/IDAHO/WYOMING

CITY           SKY/WX    TMP DP  RH WIND       PRES   REMARKS
LAS VEGAS, NV  CLOUDY    70  24  17 SW5       29.82F
ELY, NY        CLOUDY    49  27  42 SW14      29.97F
ELKO, NV       MOCLDY    48  39  71 S5        29.92R
POCATELLO, ID  CLOUDY    46  34  62 W8        29.93F
BURLEY, ID     CLOUDY    54  27  35 S14G22    29.87F
FORT BRIDGER,    N/A     38  22  51 S10       30.07F WCI  31
EVANSTON, WY   CLOUDY    40  24  53 S8        30.04F WCI  34
ROCK SPRINGS,  CLOUDY    41  23  48 SE10      30.06F
KEMMERER, WY     N/A     32  28  86 N6        30.06F WCI  26

$$




USA.gov is the U.S. government's official web portal to all federal, state and local government web resources and services.